When you browse on this site, cookies collect data to enhance your experience and personalize the content and advertising you see.
Visit our Privacy Policy to learn more. By continuing to use the site, you agree to this use of cookies and data.
  • In Hungary
  • List of Countries
  • For 7 days
  • Water Temperature
  • Satellite Maps
  • Weather Map
  • News
  • Weather Widgets
  • user-avatar
    Login

    Hourly Weather Sabadell

    Today, 16 January, Wednesday

    Time Temperature Precipitation Wind Pressure Humidity
    00:00 +7°C° 0 mm 2 mps 746 mmHg 68%
    01:00 +7°C° 0 mm 2 mps 746 mmHg 68%
    02:00 +7°C° 0 mm 2 mps 745 mmHg 68%
    03:00 +7°C° 0 mm 2 mps 745 mmHg 69%
    04:00 +7°C° 0 mm 2 mps 745 mmHg 69%
    05:00 +8°C° 0 mm 1 mps 745 mmHg 70%
    06:00 +7°C° 0 mm 1 mps 745 mmHg 74%
    07:00 +8°C° 0 mm 1 mps 745 mmHg 73%
    08:00 +9°C° 0 mm 1 mps 745 mmHg 72%
    09:00 +10°C° 0 mm 1 mps 744 mmHg 72%
    10:00 +10°C° 0 mm 2 mps 744 mmHg 71%
    11:00 +12°C° 0 mm 2 mps 744 mmHg 69%
    12:00 +13°C° 0 mm 3 mps 744 mmHg 66%
    13:00 +13°C° 0 mm 3 mps 744 mmHg 67%
    14:00 +13°C° 0 mm 3 mps 743 mmHg 67%
    15:00 +13°C° 0 mm 4 mps 743 mmHg 68%
    16:00 +12°C° 0 mm 3 mps 743 mmHg 74%
    17:00 +11°C° 0 mm 3 mps 743 mmHg 80%
    18:00 +12°C° 0 mm 2 mps 743 mmHg 85%
    19:00 +10°C° 0 mm 2 mps 743 mmHg 88%
    20:00 +10°C° 0 mm 2 mps 743 mmHg 90%
    21:00 +10°C° 0 mm 1 mps 743 mmHg 92%
    22:00 +10°C° 0 mm 1 mps 743 mmHg 92%
    23:00 +10°C° 0 mm 1 mps 743 mmHg 93%

    Tomorrow, 17 January, Thursday

    Time Temperature Precipitation Wind Pressure Humidity
    00:00 +10°C° 0 mm 1 mps 743 mmHg 93%
    01:00 +9°C° 0 mm 1 mps 743 mmHg 93%
    02:00 +9°C° 0 mm 1 mps 743 mmHg 93%
    03:00 +9°C° 0 mm 1 mps 743 mmHg 93%
    04:00 +9°C° 0 mm 1 mps 742 mmHg 92%
    05:00 +8°C° 0 mm 1 mps 742 mmHg 91%
    06:00 +7°C° 0 mm 2 mps 742 mmHg 90%
    07:00 +7°C° 0 mm 2 mps 742 mmHg 85%
    08:00 +8°C° 0 mm 2 mps 743 mmHg 80%
    09:00 +8°C° 0 mm 2 mps 743 mmHg 75%
    10:00 +11°C° 0 mm 1 mps 743 mmHg 69%
    11:00 +12°C° 0 mm 1 mps 743 mmHg 63%
    12:00 +13°C° 0 mm 1 mps 743 mmHg 57%
    13:00 +14°C° 0 mm 1 mps 743 mmHg 56%
    14:00 +14°C° 0 mm 2 mps 743 mmHg 55%
    15:00 +14°C° 0 mm 2 mps 742 mmHg 54%
    16:00 +13°C° 0 mm 2 mps 743 mmHg 59%
    17:00 +12°C° 0 mm 2 mps 743 mmHg 64%
    18:00 +11°C° 0 mm 1 mps 743 mmHg 69%
    19:00 +11°C° 0 mm 1 mps 744 mmHg 71%
    20:00 +10°C° 0 mm 1 mps 744 mmHg 74%
    21:00 +10°C° 0 mm 1 mps 744 mmHg 76%
    22:00 +9°C° 0.1 mm 1 mps 744 mmHg 79%
    23:00 +9°C° 0.1 mm 1 mps 745 mmHg 81%

    Day after tomorrow, 18 January, Friday

    Time Temperature Precipitation Wind Pressure Humidity
    00:00 +9°C° 0.1 mm 1 mps 745 mmHg 84%
    01:00 +9°C° 0.4 mm 1 mps 745 mmHg 82%
    02:00 +8°C° 0.4 mm 1 mps 745 mmHg 81%
    03:00 +8°C° 0.4 mm 1 mps 745 mmHg 79%
    04:00 +7°C° 0 mm 1 mps 745 mmHg 77%
    05:00 +7°C° 0 mm 1 mps 745 mmHg 75%
    06:00 +7°C° 0 mm 1 mps 745 mmHg 73%
    07:00 +7°C° 0 mm 1 mps 745 mmHg 70%
    08:00 +8°C° 0 mm 1 mps 745 mmHg 66%
    09:00 +8°C° 0 mm 1 mps 745 mmHg 63%
    10:00 +9°C° 0 mm 1 mps 745 mmHg 59%
    11:00 +10°C° 0 mm 1 mps 745 mmHg 55%
    12:00 +11°C° 0 mm 1 mps 744 mmHg 51%
    13:00 +11°C° 0 mm 1 mps 744 mmHg 50%
    14:00 +12°C° 0 mm 1 mps 744 mmHg 49%
    15:00 +12°C° 0 mm 1 mps 743 mmHg 48%
    16:00 +11°C° 0 mm 1 mps 744 mmHg 52%
    17:00 +10°C° 0 mm 1 mps 744 mmHg 55%
    18:00 +9°C° 0 mm 1 mps 744 mmHg 59%
    19:00 +9°C° 0 mm 1 mps 744 mmHg 60%
    20:00 +9°C° 0 mm 1 mps 744 mmHg 62%
    21:00 +8°C° 0 mm 1 mps 744 mmHg 63%
    22:00 +8°C° 0 mm 1 mps 744 mmHg 64%
    23:00 +8°C° 0 mm 1 mps 744 mmHg 65%

    19 January, Saturday

    Time Temperature Precipitation Wind Pressure Humidity
    00:00 +8°C° 0 mm 1 mps 744 mmHg 66%
    01:00 +8°C° 0 mm 1 mps 744 mmHg 69%
    02:00 +7°C° 0 mm 1 mps 744 mmHg 71%
    03:00 +7°C° 0 mm 1 mps 743 mmHg 73%
    04:00 +7°C° 0 mm 1 mps 743 mmHg 73%
    05:00 +6°C° 0 mm 1 mps 743 mmHg 73%
    06:00 +6°C° 0 mm 1 mps 743 mmHg 72%
    07:00 +7°C° 0 mm 1 mps 743 mmHg 69%
    08:00 +7°C° 0 mm 1 mps 743 mmHg 65%
    09:00 +8°C° 0 mm 1 mps 743 mmHg 62%
    10:00 +9°C° 0 mm 1 mps 742 mmHg 57%
    11:00 +10°C° 0 mm 1 mps 742 mmHg 52%
    12:00 +11°C° 0 mm 1 mps 741 mmHg 47%
    13:00 +12°C° 0 mm 2 mps 741 mmHg 47%
    14:00 +12°C° 0 mm 2 mps 740 mmHg 46%
    15:00 +11°C° 0 mm 3 mps 739 mmHg 46%
    16:00 +11°C° 0 mm 3 mps 739 mmHg 50%
    17:00 +10°C° 0 mm 2 mps 739 mmHg 53%
    18:00 +9°C° 0 mm 2 mps 739 mmHg 57%
    19:00 +9°C° 0 mm 2 mps 739 mmHg 59%
    20:00 +10°C° 0 mm 1 mps 739 mmHg 61%
    21:00 +8°C° 0 mm 0 mps 738 mmHg 64%
    22:00 +9°C° 0.2 mm 1 mps 738 mmHg 66%
    23:00 +9°C° 0.2 mm 1 mps 738 mmHg 69%

    20 January, Sunday

    Time Temperature Precipitation Wind Pressure Humidity
    00:00 +9°C° 0.2 mm 1 mps 738 mmHg 72%
    01:00 +9°C° 0.2 mm 1 mps 738 mmHg 72%
    02:00 +7°C° 0.2 mm 2 mps 738 mmHg 72%
    03:00 +7°C° 0.2 mm 2 mps 738 mmHg 72%
    04:00 +7°C° 0.1 mm 2 mps 738 mmHg 71%
    05:00 +7°C° 0.1 mm 2 mps 738 mmHg 70%
    06:00 +7°C° 0.1 mm 2 mps 739 mmHg 69%
    07:00 +7°C° 0 mm 2 mps 739 mmHg 68%
    08:00 +8°C° 0 mm 2 mps 740 mmHg 67%
    09:00 +8°C° 0 mm 2 mps 741 mmHg 66%
    10:00 +9°C° 0 mm 2 mps 741 mmHg 61%
    11:00 +12°C° 0 mm 2 mps 741 mmHg 55%
    12:00 +13°C° 0 mm 2 mps 742 mmHg 50%
    13:00 +13°C° 0 mm 2 mps 742 mmHg 49%
    14:00 +14°C° 0 mm 2 mps 742 mmHg 48%
    15:00 +14°C° 0 mm 2 mps 742 mmHg 47%
    16:00 +13°C° 0 mm 2 mps 742 mmHg 53%
    17:00 +12°C° 0 mm 2 mps 743 mmHg 58%
    18:00 +11°C° 0 mm 1 mps 743 mmHg 64%
    19:00 +10°C° 0 mm 1 mps 744 mmHg 66%
    20:00 +10°C° 0 mm 1 mps 744 mmHg 67%
    21:00 +9°C° 0 mm 1 mps 745 mmHg 69%
    22:00 +9°C° 0 mm 1 mps 745 mmHg 69%
    23:00 +8°C° 0 mm 1 mps 745 mmHg 68%

    21 January, Monday

    Time Temperature Precipitation Wind Pressure Humidity
    00:00 +8°C° 0 mm 1 mps 745 mmHg 68%
    01:00 +8°C° 0 mm 1 mps 745 mmHg 66%
    02:00 +8°C° 0 mm 1 mps 744 mmHg 64%
    03:00 +6°C° 0 mm 2 mps 744 mmHg 62%
    04:00 +6°C° 0 mm 2 mps 744 mmHg 60%
    05:00 +6°C° 0 mm 2 mps 744 mmHg 58%
    06:00 +6°C° 0 mm 2 mps 744 mmHg 56%
    07:00 +6°C° 0 mm 2 mps 745 mmHg 54%
    08:00 +7°C° 0 mm 2 mps 745 mmHg 51%
    09:00 +8°C° 0 mm 1 mps 746 mmHg 48%
    10:00 +10°C° 0 mm 1 mps 745 mmHg 46%
    11:00 +11°C° 0 mm 1 mps 745 mmHg 43%
    12:00 +13°C° 0 mm 1 mps 745 mmHg 40%
    13:00 +13°C° 0 mm 1 mps 745 mmHg 42%
    14:00 +13°C° 0 mm 2 mps 745 mmHg 45%
    15:00 +12°C° 0 mm 3 mps 744 mmHg 47%
    16:00 +12°C° 0.3 mm 2 mps 745 mmHg 55%
    17:00 +10°C° 0.3 mm 2 mps 745 mmHg 63%
    18:00 +8°C° 0.3 mm 2 mps 745 mmHg 71%
    19:00 +9°C° 0.2 mm 1 mps 746 mmHg 70%
    20:00 +8°C° 0.2 mm 1 mps 746 mmHg 68%
    21:00 +8°C° 0.2 mm 1 mps 746 mmHg 67%
    22:00 +7°C° 0 mm 1 mps 746 mmHg 63%
    23:00 +7°C° 0 mm 1 mps 746 mmHg 60%
    Show more